Location: D�pe
(52.6057°N, 8.1808°E)
Time: 13:55:55
(UTC+00:00)

Cosmos 2058 - Pass Details

Date: 29 October 2020
Orbit: 562 x 583 km, 82.5° (Epoch: 28 November)

Event Time Altitude Azimuth Distance (km) Brightness Sun altitude
Rises 17:27:40 0° 351° (N) 2,770 6.5 -13.4°
Reaches altitude 10° 17:29:52 10° 355° (N) 1,868 5.5 -13.8°
Maximum altitude 17:33:57 63° 77° (ENE) 636 2.8 -14.4°
Drops below altitude 10° 17:38:00 10° 158° (SSE) 1,855 5.3 -15.0°
Sets 17:40:12 0° 162° (SSE) 2,749 6.2 -15.3°
